Date,TemperatureHighF,TemperatureAvgF,TemperatureLowF,DewpointHighF,DewpointAvgF,DewpointLowF,HumidityHigh,HumidityAvg,HumidityLow,PressureMaxIn,PressureMinIn,WindSpeedMaxMPH,WindSpeedAvgMPH,GustSpeedMaxMPH,PrecipitationSumIn
2013-1-1,37,30,21,23,16,8,64,54,48,29.87,29.68,19,2,19,0.04
2013-1-2,30,21,14,16,10,4,75,62,51,30.04,29.83,14,1,14,0.00
2013-1-3,25,15,6,11,2,-4,69,55,30,30.08,29.93,9,1,0,0.00
2013-1-4,31,28,20,23,20,11,74,71,67,29.93,29.79,7,0,0,0.04
2013-1-5,42,32,24,25,22,20,86,66,46,30.20,29.79,13,1,13,0.07
2013-1-6,43,32,24,30,26,20,91,76,57,30.17,29.87,17,1,17,0.07
2013-1-8,34,34,32,29,28,28,83,81,79,30.30,30.29,0,0,0,0.01
2013-1-9,44,36,24,36,30,23,94,79,61,30.34,29.92,17,1,0,0.00
2013-1-10,47,41,32,31,25,24,71,53,41,30.47,29.98,11,2,0,0.00
2013-1-11,40,34,26,35,29,22,95,82,69,30.46,30.16,3,0,0,0.11
2013-1-12,44,41,37,42,40,35,98,96,93,30.17,30.06,1,0,0,0.01
2013-1-13,52,46,42,50,46,41,98,96,92,30.09,29.93,7,1,0,0.01
2013-1-14,61,52,42,52,44,28,96,76,43,30.19,29.80,14,1,0,0.00
2013-1-15,42,38,33,31,27,24,81,64,56,30.25,30.14,5,0,0,0.00
2013-1-16,36,33,31,32,30,24,97,90,62,30.18,29.75,5,0,0,0.11
2013-1-17,42,35,30,33,28,16,97,77,55,30.04,29.77,12,1,0,0.18
2013-1-18,30,22,19,18,1,-4,59,41,28,30.40,30.00,13,1,0,0.00
2013-1-19,44,32,22,33,20,6,75,60,48,30.34,29.83,24,3,0,0.07
2013-1-20,54,44,29,34,29,9,74,56,36,29.86,29.47,30,4,0,0.00
2013-1-21,29,26,23,22,12,5,91,57,40,30.04,29.73,15,1,0,0.00
2013-1-22,24,20,14,22,11,0,91,71,44,30.02,29.69,16,1,0,0.00
2013-1-23,16,12,8,0,-8,-10,56,41,31,30.08,30.00,11,2,0,0.00
2013-1-24,20,11,4,-5,-8,-11,55,40,27,30.17,29.99,17,2,0,0.00
2013-1-25,24,16,8,14,-5,-11,86,40,23,30.24,30.00,13,1,0,0.00
2013-1-26,24,17,11,13,5,-5,88,60,33,30.17,29.94,10,1,0,0.00
2013-1-27,30,21,12,5,2,-4,66,45,28,30.40,30.16,11,1,0,0.00
2013-1-28,31,24,18,27,13,3,94,65,32,30.39,29.95,10,0,0,0.00
2013-1-29,34,30,26,32,28,25,96,92,86,30.14,29.95,2,0,0,0.10
2013-1-30,61,50,33,57,48,32,97,93,85,30.10,29.41,20,4,0,0.10
2013-1-31,61,44,32,59,31,16,93,62,39,29.53,28.92,23,4,0,0.07